Location: Zilina
(0.0000°N, 18.7333°E)
Time: 09:09:23
(UTC+02:00)

Daily predictions for brighter satellites

Satellite Brightness Start Highest point End
(mag) Time Altitude Azimuth Time Altitude Azimuth Time Altitude Azimuth
Ariane H10 2.1 19:05:39 10° WSW 19:07:48 36° S 19:11:25 10° ESE
Cosmos 2333 4.3 19:02:22 10° SSW 19:08:00 87° ESE 19:13:41 10° NNE
ATLAS 2AS CENTAUR R/B 2.7 19:05:02 10° NNW 19:12:00 66° ENE 19:18:20 10° SSE
Hubble Space Telescope 2.5 19:11:03 10° NNW 19:14:13 21° NNE 19:17:24 10° E
Cosmos 1862 Rocket 3.7 19:11:43 10° N 19:15:54 50° E 19:20:08 10° SSE
NOSS 0 Rocket 4.5 19:11:13 10° S 19:16:50 35° ESE 19:22:25 10° NE
Cosmos 1184 Rocket 3.6 19:16:43 10° NNE 19:19:40 31° E 19:22:37 10° SSE
Cosmos 2150 Rocket 4.1 19:16:45 10° SSW 19:22:02 88° W 19:27:13 10° NNE
SJ 16-02 1.4 19:22:59 10° S 19:27:17 54° ESE 19:31:34 10° NNE
Cosmos 2263 Rocket 2.9 19:23:21 10° NNE 19:28:15 32° ENE 19:33:12 10° SE
Cosmos 2237 Rocket 2.9 19:24:11 10° SSE 19:29:06 30° ESE 19:34:01 10° NE
ARIANE 3 DEB 4.0 19:27:23 10° W 19:31:02 56° N 19:39:16 10° ENE
GPS 2-17 Rocket1 4.0 19:27:14 10° W 19:31:15 35° SSW 19:35:00 11° SE
Cosmos 1980 4.1 19:28:53 10° S 19:34:04 38° ESE 19:39:13 10° NE
Ariane H10-3 3.3 19:32:34 10° W 19:36:14 78° N 19:55:09 10° E
Centaur D-1AR AC-48 4.5 19:30:21 10° SW 19:36:46 46° SE 20:33:50 10° ENE
Centaur D-1AR AC-48 4.5 19:30:21 10° SW 19:36:47 46° SE 20:33:49 10° ENE
Cosmos 1606 3.2 19:33:38 10° NNW 19:37:22 61° W 19:41:06 10° S
Cosmos 372 Rocket 4.0 19:38:08 10° S 19:43:07 55° ESE 19:48:04 10° NNE
CZ-4 R/B 3.8 19:43:40 10° SSW 19:46:59 25° WSW 19:50:21 10° NW
Cosmos 2366 rocket 4.2 19:42:53 10° N 19:49:12 78° W 19:55:33 10° S
IRS-1A Rocket 4.5 19:44:38 10° S 19:50:33 82° WSW 19:56:22 10° NNW
Ariane Rocket 4.3 19:46:31 10° S 19:51:16 40° WSW 19:55:59 10° NNW
NOSS 3-4 (A) 4.3 19:45:21 10° N 19:52:35 45° ENE 19:58:03 19° SE
NOSS 3-4 (C) 4.4 19:45:27 10° N 19:52:42 44° ENE 19:58:06 19° SE
H-2A R/B 3.7 19:50:44 10° S 19:54:18 47° W 19:57:54 10° NNW
Meteor 2-6 Rocket 4.2 19:49:30 10° N 19:55:26 81° E 20:01:16 10° S
Geosat 4.1 19:52:41 16° SE 19:56:33 55° ENE 20:01:25 10° N
Cosmos 2219 Rocket 3.3 19:52:00 10° SSW 19:57:17 45° WNW 20:02:35 10° N
TELKOM 3 4.0 19:57:25 10° SW 19:59:32 41° NW 20:00:03 32° N
Cosmos 1633 2.4 19:56:27 10° S 20:00:05 81° E 20:03:41 10° N
ARIANE 5 DEB (SYLDA) 3.1 19:58:44 10° WSW 19:59:11 15° WSW 19:59:11 15° WSW
Cosmos 1125 Rocket 3.3 19:56:05 10° S 20:01:17 74° ESE 20:06:27 10° NNE
GPS 2-04 Rocket1 3.6 19:59:11 10° SSW 20:01:20 25° SSE 20:01:20 25° SSE
Cosmos 2084 4.1 19:58:41 10° SSW 20:03:22 64° WNW 20:07:52 10° NNE
Cosmos 1733 Rocket 3.0 20:03:45 10° S 20:08:07 58° E 20:12:28 10° NNE
GPS 2-12 Rocket1 3.8 20:06:01 10° W 20:10:26 48° NNW 20:12:53 24° NE
Centaur D-1A AC-31 2.6 20:07:01 10° W 20:10:43 47° SSW 20:16:17 22° SE
SWIFT 4.2 20:07:39 10° WSW 20:10:46 20° SSW 20:11:54 18° S
Meteor 1-14 Rocket 4.2 20:08:35 10° S 20:14:33 69° E 20:20:26 10° NNE
Ariane H10+ 4.2 19:33:39 10° W 20:14:34 78° N 20:21:03 30° E
Ariane 42P Rocket 2.8 20:14:56 10° WNW 20:16:32 32° NNW 20:16:32 32° NNW
Cosmos 1680 Rocket 3.5 20:11:54 10° NNW 20:17:07 82° WSW 20:20:48 20° S
ARIANE 5 R/B 3.9 20:14:46 10° WNW 20:18:52 58° NNE 20:28:16 25° E
ARIANE 5 R/B 3.9 20:14:46 10° WNW 20:18:52 58° NNE 20:28:15 25° E
ARIANE 5 R/B 3.9 20:14:46 10° WNW 20:18:52 58° NNE 20:28:17 25° E
Okean 1-7 2.8 20:19:15 10° N 20:23:32 87° E 20:24:17 60° S
Meteor 1-25 Rocket 4.3 20:23:39 10° S 20:29:20 79° W 20:35:05 10° N
Cosmos 1821 Rocket 3.8 20:25:20 10° N 20:31:26 73° E 20:33:39 41° SSE
Meteor 2-17 Rocket 4.3 20:25:58 10° N 20:31:58 65° E 20:33:01 55° SE
Lacrosse 5 rocket 3.4 20:30:09 10° N 20:31:58 20° NNE 20:31:58 20° NNE
SPOT 3 Rocket 4.4 20:34:54 13° S 20:39:23 48° WSW 20:44:23 10° NNW
Ariane H10-3 3.9 12:56:48 10° W 20:39:58 75° S 20:42:29 50° ESE
GPS 2-15 Rocket1 4.3 20:39:29 10° W 20:43:07 33° SW 20:43:07 33° SW
ISS -1.0 20:44:20 10° NW 20:45:17 18° NW 20:45:17 18° NW
ARIANE DEB (SPELDA) 4.5 20:50:21 10° W 20:52:10 21° WSW 20:52:10 21° WSW
Hubble Space Telescope 2.7 20:51:20 10° WNW 20:53:30 29° W 20:53:30 29° W
Envisat 4.4 20:53:52 23° SSW 20:56:19 36° WSW 21:00:56 10° NW
H-2A R/B 4.2 21:37:09 10° WSW 21:43:58 80° NNW 22:41:33 10° NE
